Карточка аэропорта UERP

Внимание!
Информация на этой странице в стадии наполнения.
Если вы не увидели какой-то информации, или заметили неточность - пожалуйста сообщите нам!
Спасибо!
Команда RU-STAFF
Название аэропортаПолярный
Название аэропорта (англ.)Poliarny
Превышение1673 ft. (509.9 m.)
Координаты66°23.85', 112°2.0999999999998'
Высота перехода700m
Эшелон переходаQFE>=714mm:FL050; QFE<714=>687:FL060; QFE<687:FL070
Коды ответчика1000
Зона ОрВДЯкутск РПИ (UEEE)
Данные METARUERP 140230Z 30004MPS 9999 BKN016CB BKN100 08/04 Q1007 R35/190060 NOSIG RMK QFE711
Проноз погоды (TAF)UERP 140200Z 1403/1503 31003G08MPS 9999 BKN017CB BKN100 TEMPO 1403/1409 34005G10MPS 3000 -SHRA BR BKN011CB OVC100 BECMG 1410/1412 03003MPS
NOTAMshow/hide NOTAM
AWOS   TABLE

Информация о ВПП

ВПП Длина ВПП (м.) Покрытие Курс ВПП Частота ILS
173100Железобетон173 
353100Железобетон353108.1

Диспетчерские позиции

Позывной Наименование органа УВД Частота
UERP_TWRПолярный-Вышка124.200
UERP_CTRПолярный-Контроль132.1



Спутниковое изображение